Regional Weather Roundup
Issued by NWS Northern Indiana

Home | Current Version | Previous Version | Graphics & Text | Print | Product List | Glossary On
Versions: 1 2 3 4 5 6 7 8 9 10 11 12 13 14 15 16 17 18 19 20 21 22 23 24 25 26 27 28 29 30 31 32 33 34 35 36 37 38 39 40 41 42 43 44 45 46 47 48 49 50
000
ASUS43 KIWX 202000
RWRIWX

KIWX WEATHER ROUNDUP
NATIONAL WEATHER SERVICE NORTHERN INDIANA
300 PM EST SAT DEC 20 2014

NOTE: "FAIR" INDICATES FEW OR NO CLOUDS BELOW 12,000 FEET WITH NO
SIGNIFICANT WEATHER AND/OR OBSTRUCTIONS TO VISIBILITY.

* THESE STATIONS ARE NOT UNDER NWS QUALITY CONTROL. THEY ALSO MAY NOT
  REPORT WEATHER SUCH AS PRECIPITATION OR FOG.

INZ001>027-202100-
NORTHERN INDIANA

CITY           SKY/WX    TMP DP  RH WIND       PRES   REMARKS
GARY*          CLOUDY    34  21  60 SW9       30.25F WCI  26
VALPARAISO     CLOUDY    32  25  74 SW7       30.25S WCI  26
SOUTH BEND     CLOUDY    33  24  69 W3        30.24F
GOSHEN         CLOUDY    31  27  85 CALM      30.24F FOG
ANGOLA*        CLOUDY    30  23  74 NW6       30.23F WCI  24
FORT WAYNE     CLOUDY    32  25  75 SW6       30.25F WCI  26

$$
INZ028>050-202100-
CENTRAL INDIANA

CITY           SKY/WX    TMP DP  RH WIND       PRES   REMARKS
LAFAYETTE      CLOUDY    32  25  75 SE3       30.25F
KOKOMO*        PTSUNNY   34  21  60 CALM      30.24F
MUNCIE*        CLOUDY    32  24  72 CALM      30.24F
INDIANAPOLIS   CLOUDY    32  23  69 CALM      30.23F

$$
MIZ043>046-050>051-056>058-064>065-071>073-077>080-202100-
SOUTHWEST LOWER MICHIGAN

CITY           SKY/WX    TMP DP  RH WIND       PRES   REMARKS
BATTLE CREEK   CLOUDY    32  22  66 CALM      30.23F
BENTON HARBOR  CLOUDY    32  26  78 SW7       30.24F WCI  26
COLDWATER*     CLOUDY    32  22  66 CALM      30.22F
HILLSDALE*     CLOUDY    30  22  72 N3        30.22S
HOLLAND        CLOUDY    31  25  78 S3        30.25F
GRAND RAPIDS   CLOUDY    32  22  66 S3        30.24F
KALAMAZOO      CLOUDY    31  23  72 CALM      30.24F
STURGIS*       CLOUDY    28  27  93 CALM      30.23F
THREE RIVERS*  CLOUDY    29  26  86 CALM      30.24F FOG

$$
OHZ001>008-015>018-024>025-202100-
NORTHWEST OHIO

CITY           SKY/WX    TMP DP  RH WIND       PRES   REMARKS
DEFIANCE       CLOUDY    33  22  63 NW5       30.25  WCI  29
FINDLAY        CLOUDY    32  23  69 S5        30.24S WCI  27
TOLEDO EXPRESS CLOUDY    30  22  72 S5        30.25F WCI  25
TOLEDO METCALF CLOUDY    32  21  64 CALM      30.26S
LIMA           CLOUDY    33  23  66 SW5       30.24S WCI  29

$$
AND FOR LAKE MICHIGAN COASTAL AND OPEN LAKE BUOY OBSERVATIONS

STATION/POSITION TEMP    WIND        PRES    VSBY  WAVE
                 AIR SEA DIR/SP/G                  HT/PER
                 (F)     (DEG/KT/KT) (MB)    (MI)  (FT/S)
CALUMET HARBOR    33     210/  7/ 10 1022.9F
SAINT JOSEPH      34     210/  9/ 14 1024.4S

$$
&&


USA.gov is the U.S. government's official web portal to all federal, state and local government web resources and services.